[[{"header":{"parameterUnit":"m.s-1","parameterCategory":1,"la1":30.2991,"la2":30.254,"lo1":-89.0895,"lo2":-89.0444,"dy":0.0017,"dx":0.0017,"nx":28,"ny":28,"refTime":"2025-09-06T09:00:00:Z","depth":0,"parameterNumber":2,"parameterNumberName":"U-component_of_WINDS"},"data":[0,0,0,0,0,0,0,0,0,0,0,0,0,0,0,0,0,0,0,0,0,0,0,0,0,0,0,0,0,0,0,0,0,0,0,0,0,0,0,0,0,0,0,0,0,0,0,0,0,0,0,0,0,0,0,0,0,0,-2.5782,-2.5783,0,-2.587,-2.5871,-2.5872,-2.5817,-2.5814,-2.5812,-2.5809,-2.5901,-2.5905,-2.591,0,0,0,0,0,0,0,0,0,0,0,0,0,-2.5568,-2.5572,-2.5782,-2.5783,-2.5784,-2.587,-2.5871,-2.5872,-2.5817,-2.5814,-2.5811,-2.5808,-2.5899,-2.5905,-2.591,0,0,0,0,0,0,0,0,0,0,0,0,0,-2.5659,-2.5573,-2.5782,-2.5767,-2.5767,-2.5869,-2.5871,-2.5872,-2.5818,-2.5814,-2.581,-2.5807,-2.5897,-2.5904,-2.5911,-2.6033,0,0,-2.5933,-2.5936,0,0,0,0,0,0,0,0,-2.5654,-2.5667,-2.5768,-2.5768,-2.5768,-2.5828,-2.5828,-2.5926,-2.5819,-2.5799,-2.5809,-2.5805,-2.588,-2.5888,-2.5913,-2.6038,-2.6042,-2.5934,-2.5938,-2.5941,-2.5944,0,0,0,0,0,0,0,-2.5647,-2.5663,-2.5817,-2.577,-2.577,-2.5756,-2.5765,-2.5847,-2.586,-2.58,-2.5796,-2.5807,-2.5879,-2.5906,-2.5915,-2.6043,-2.5934,-2.594,-2.5945,-2.5948,-2.6271,-2.6275,0,0,0,0,0,0,-2.5642,-2.5658,-2.5814,-2.5819,-2.57,-2.5763,-2.5773,-2.5813,-2.5859,-2.5862,-2.5811,-2.5805,-2.5896,-2.5906,-2.5918,-2.6064,-2.5941,-2.5948,-2.5952,-2.6267,-2.6272,-2.6277,0,0,0,0,0,0,-2.5638,-2.5657,-2.581,-2.5738,-2.5756,-2.5771,-2.5816,-2.5817,-2.5844,-2.5867,-2.5869,-2.5836,-2.5893,-2.5908,-2.6005,-2.6067,-2.5951,-2.5958,-2.6262,-2.6269,-2.6275,-2.6358,0,0,0,0,0,0,-2.5632,-2.5655,-2.5702,-2.5739,-2.576,-2.5896,-2.582,-2.5821,-2.5857,-2.5849,-2.5891,-2.5895,-2.5891,-2.5994,-2.6012,-2.6074,-2.5964,-2.6257,-2.6265,-2.6273,-2.635,-2.6366,-2.638,0,0,0,0,0,-2.5624,-2.5722,-2.5705,-2.5724,-2.5819,-2.59,-2.5912,-2.5906,-2.5862,-2.5909,-2.5923,-2.5893,-2.6056,-2.6005,-2.6024,-2.609,-2.6253,-2.6263,-2.6272,-2.6343,-2.6363,-2.638,0,0,0,0,0,0,-2.5693,-2.5727,-2.5708,-2.5821,-2.5858,-2.589,-2.595,-2.5928,-2.5978,-2.597,-2.596,-2.597,-2.6072,-2.609,-2.6032,-2.621,-2.6148,-2.6162,-2.6195,-2.6214,-2.6229,-2.6223,-2.597,0,0,0,0,0,-2.5721,-2.5784,-2.581,-2.5907,-2.5926,-2.5935,-2.597,-2.5962,-2.6,-2.6016,-2.6037,-2.6076,-2.6136,-2.6176,-2.6232,-2.6351,-2.636,-2.6406,-2.6421,-2.6433,-2.6446,-2.6511,-2.6531,-2.6308,-2.6308,-2.6308,0,0,-2.578,-2.5806,-2.5847,-2.5921,-2.5949,-2.6015,-2.5949,-2.6021,-2.607,-2.6027,-2.612,-2.6137,-2.6179,-2.6288,-2.6337,-2.6307,-2.6509,-2.6446,-2.6455,-2.6462,-2.6523,-2.6544,-2.6562,-2.6315,-2.6314,-2.6313,0,0,-2.5922,-2.5947,-2.6031,-2.606,-2.6103,-2.6107,-2.6127,-2.6163,-2.6173,-2.6266,-2.6235,-2.6293,-2.6396,-2.6427,-2.6457,-2.6609,-2.6583,-2.6627,-2.6708,-2.6771,-2.6789,-2.6804,-2.6859,-2.6879,-2.6639,-2.6639,-2.664,0,-2.599,-2.6087,-2.6077,-2.6152,-2.6185,-2.6149,-2.6233,-2.6262,-2.6321,-2.6345,-2.631,-2.6438,-2.6464,-2.658,-2.6617,-2.6641,-2.6664,-2.6623,-2.6787,-2.6802,-2.6817,-2.6869,-2.6889,-2.6645,-2.6644,-2.6643,-2.6643,0,-2.617,-2.6237,-2.63,-2.6357,-2.6398,-2.6477,-2.6479,-2.6521,-2.6509,-2.6517,-2.6612,-2.6641,-2.6703,-2.6729,-2.6719,-2.6844,-2.6823,-2.6788,-2.6725,-2.6843,-2.6892,-2.6912,-2.6652,-2.665,-2.6649,-2.6647,0,0,-2.6359,-2.6408,-2.6432,-2.6457,-2.6501,-2.6553,-2.663,-2.669,-2.6726,-2.6768,-2.6833,-2.692,-2.6887,-2.692,-2.6912,-2.6967,-2.7086,-2.6925,-2.6925,-2.6955,-2.7226,-2.7254,-2.7277,-2.7068,-2.7072,-2.7075,-2.7223,0,-2.6504,-2.6639,-2.6631,-2.6758,-2.682,-2.6785,-2.6852,-2.6886,-2.6896,-2.695,-2.696,-2.7023,-2.6974,-2.6994,-2.7047,-2.706,-2.7141,-2.7049,-2.7129,-2.7132,-2.7122,-2.7303,-2.7332,-2.7471,-2.7242,-2.7245,-2.7247,0,-2.6692,-2.6739,-2.6872,-2.6905,-2.6931,-2.6992,-2.7045,-2.7098,-2.7135,-2.7138,-2.7175,-2.7157,-2.7235,-2.7169,-2.7277,-2.7215,-2.7246,-2.7258,-2.7263,-2.7272,-2.7198,-2.7317,-2.7514,-2.7536,-2.7277,-2.7275,-2.7273,0,-2.6818,-2.6914,-2.7006,-2.7029,-2.707,-2.7114,-2.7133,-2.7166,-2.7202,-2.7249,-2.7272,-2.7327,-2.7358,-2.7401,-2.7399,-2.7351,-2.7508,-2.7442,-2.7513,-2.7514,-2.755,-2.7548,-2.7756,-2.7568,-2.7568,-2.7567,-2.7567,0,-2.6981,-2.7064,-2.7063,-2.712,-2.7212,-2.7202,-2.7293,-2.7307,-2.7337,-2.7396,-2.7368,-2.7424,-2.7417,-2.7473,-2.7472,-2.7561,-2.7575,-2.758,-2.7579,-2.7584,-2.7583,-2.7606,-2.7597,-2.7573,-2.7571,-2.757,-2.7569,0,-2.7139,-2.7141,-2.7239,-2.727,-2.7279,-2.7346,-2.7372,-2.7425,-2.7431,-2.7506,-2.7523,-2.7533,-2.7598,-2.7599,-2.7673,-2.7672,-2.7782,-2.7769,-2.777,-2.7768,-2.7839,-2.7833,-2.8071,-2.8102,-2.7892,-2.7894,-2.7896,0,-2.7244,-2.7307,-2.7343,-2.7381,-2.7402,-2.7463,-2.7499,-2.7491,-2.753,-2.7577,-2.7625,-2.7687,-2.7736,-2.784,-2.7855,-2.7911,-2.79,-2.7979,-2.7909,-2.7911,-2.7903,-2.79,-2.7906,-2.7994,-2.7996,-2.7998,-2.8,0,-2.743,-2.7428,-2.7482,-2.7536,-2.758,-2.7622,-2.7661,-2.7693,-2.7689,-2.7734,-2.7799,-2.7837,-2.7912,-2.7974,-2.8028,-2.8048,-2.8024,-2.8022,-2.8041,-2.8048,-2.8046,-2.8049,-2.7809,-2.8017,-2.8015,-2.8014,-2.8013,-2.8012,-2.7566,-2.762,-2.7654,-2.7714,-2.7742,-2.7779,-2.7831,-2.7843,-2.7897,-2.7958,-2.7949,-2.8022,-2.8057,-2.8127,-2.8151,-2.8208,-2.8181,-2.8209,-2.8217,-2.8224,-2.8233,-2.8035,-2.8218,-2.8217,-2.8217,-2.8217,-2.8216,0,-2.7752,-2.7772,-2.7827,-2.7882,-2.7929,-2.7901,-2.7942,-2.7984,-2.8048,-2.8082,-2.8131,-2.8206,-2.8265,-2.8283,-2.8341,-2.8383,-2.8373,-2.8398,-2.8396,-2.8401,-2.8253,-2.8231,-2.8405,-2.8405,-2.8405,-2.8405,-2.8405,-2.8405,-2.7854,-2.7945,-2.7946,-2.805,-2.8069,-2.814,-2.8166,-2.82,-2.8227,-2.8312,-2.8361,-2.8372,-2.84,-2.8459,-2.8512,-2.8515,-2.8538,-2.8569,-2.8568,-2.843,-2.8411,-2.8393,-2.8372,-2.8573,-2.8573,-2.8711,-2.8712,-2.8713]},{"header":{"parameterUnit":"m.s-1","parameterCategory":1,"la1":30.2991,"la2":30.254,"lo1":-89.0895,"lo2":-89.0444,"dy":0.0017,"dx":0.0017,"nx":28,"ny":28,"refTime":"2025-09-06T09:00:00:Z","depth":0,"parameterNumber":3,"parameterNumberName":"V-component_of_WINDS"},"data":[0,0,0,0,0,0,0,0,0,0,0,0,0,0,0,0,0,0,0,0,0,0,0,0,0,0,0,0,0,0,0,0,0,0,0,0,0,0,0,0,0,0,0,0,0,0,0,0,0,0,0,0,0,0,0,0,0,0,-6.2398,-6.2399,0,-6.2472,-6.2473,-6.2474,-6.2383,-6.2379,-6.2376,-6.2373,-6.2444,-6.2449,-6.2454,0,0,0,0,0,0,0,0,0,0,0,0,0,-6.2169,-6.2174,-6.2398,-6.2399,-6.24,-6.2472,-6.2473,-6.2474,-6.2383,-6.2379,-6.2375,-6.2371,-6.2443,-6.2449,-6.2455,0,0,0,0,0,0,0,0,0,0,0,0,0,-6.2259,-6.2176,-6.2397,-6.2363,-6.2361,-6.2472,-6.2473,-6.2475,-6.2384,-6.2379,-6.2374,-6.2369,-6.2441,-6.2448,-6.2456,-6.2603,0,0,-6.2479,-6.2482,0,0,0,0,0,0,0,0,-6.2254,-6.2267,-6.2367,-6.2366,-6.2363,-6.2413,-6.2419,-6.2518,-6.2385,-6.2375,-6.2373,-6.2367,-6.2438,-6.2445,-6.247,-6.2607,-6.261,-6.2479,-6.2484,-6.2487,-6.2489,0,0,0,0,0,0,0,-6.2248,-6.2263,-6.2427,-6.2369,-6.2366,-6.2341,-6.2349,-6.2437,-6.2434,-6.2375,-6.2369,-6.2379,-6.2436,-6.2463,-6.2471,-6.2611,-6.2479,-6.2486,-6.2491,-6.2494,-6.2869,-6.2875,0,0,0,0,0,0,-6.2246,-6.2259,-6.2425,-6.2429,-6.2295,-6.235,-6.2358,-6.2402,-6.2432,-6.2432,-6.2384,-6.2375,-6.2453,-6.2462,-6.2473,-6.2647,-6.2487,-6.2494,-6.2499,-6.2864,-6.2871,-6.2877,0,0,0,0,0,0,-6.2242,-6.2262,-6.2422,-6.2342,-6.2361,-6.2359,-6.241,-6.2406,-6.2434,-6.2439,-6.2437,-6.2413,-6.2449,-6.2463,-6.2571,-6.2648,-6.2498,-6.2505,-6.2858,-6.2866,-6.2874,-6.2997,0,0,0,0,0,0,-6.2236,-6.2261,-6.2319,-6.2345,-6.2366,-6.2521,-6.2414,-6.2411,-6.2448,-6.2437,-6.2466,-6.2465,-6.2446,-6.2561,-6.2579,-6.2656,-6.251,-6.2851,-6.2861,-6.2871,-6.2986,-6.3008,-6.3027,0,0,0,0,0,-6.2228,-6.235,-6.2322,-6.2343,-6.2438,-6.2526,-6.2537,-6.2514,-6.2454,-6.2511,-6.2514,-6.2465,-6.2637,-6.2573,-6.2592,-6.2673,-6.2846,-6.2858,-6.287,-6.2976,-6.3004,-6.3027,0,0,0,0,0,0,-6.2332,-6.2353,-6.2322,-6.2456,-6.249,-6.251,-6.2581,-6.2544,-6.2594,-6.2582,-6.2549,-6.2556,-6.2672,-6.2683,-6.2611,-6.2816,-6.2731,-6.2748,-6.2805,-6.2831,-6.2851,-6.2846,-6.2517,0,0,0,0,0,-6.237,-6.2442,-6.2455,-6.2572,-6.2591,-6.2583,-6.2621,-6.26,-6.2632,-6.2646,-6.2657,-6.2689,-6.275,-6.2791,-6.2847,-6.2986,-6.299,-6.3051,-6.3072,-6.3089,-6.3104,-6.3176,-6.3203,-6.2917,-6.2917,-6.2916,0,0,-6.2451,-6.2471,-6.2518,-6.2593,-6.2617,-6.269,-6.2596,-6.2677,-6.273,-6.2657,-6.2761,-6.277,-6.2803,-6.2928,-6.2983,-6.2941,-6.3184,-6.3105,-6.3118,-6.3124,-6.3192,-6.3219,-6.3243,-6.2925,-6.2924,-6.2922,0,0,-6.2634,-6.2657,-6.2757,-6.2782,-6.282,-6.2814,-6.2838,-6.2863,-6.2867,-6.2971,-6.2917,-6.2978,-6.3085,-6.3111,-6.3138,-6.3329,-6.3285,-6.3348,-6.3457,-6.3528,-6.355,-6.357,-6.3637,-6.3662,-6.3363,-6.3364,-6.3364,0,-6.2729,-6.2838,-6.2812,-6.2897,-6.2931,-6.287,-6.2969,-6.2995,-6.3048,-6.3072,-6.3024,-6.3155,-6.3174,-6.3302,-6.3349,-6.3373,-6.3398,-6.3345,-6.3549,-6.3569,-6.3587,-6.3651,-6.3676,-6.3371,-6.337,-6.3369,-6.3369,0,-6.2952,-6.3028,-6.3103,-6.3158,-6.32,-6.3292,-6.3278,-6.3323,-6.3298,-6.3297,-6.3402,-6.3421,-6.348,-6.3509,-6.3485,-6.3634,-6.3607,-6.3555,-6.3469,-6.3622,-6.3681,-6.3706,-6.3382,-6.3379,-6.3377,-6.3375,0,0,-6.3203,-6.3242,-6.327,-6.3294,-6.333,-6.3387,-6.3474,-6.3533,-6.3572,-6.3611,-6.3682,-6.3773,-6.3725,-6.3755,-6.3733,-6.3796,-6.3945,-6.3736,-6.3736,-6.3773,-6.4108,-6.4147,-6.4176,-6.3916,-6.392,-6.3924,-6.4105,0,-6.3386,-6.3541,-6.3519,-6.3666,-6.3735,-6.3677,-6.3753,-6.3782,-6.3783,-6.384,-6.3839,-6.3904,-6.3836,-6.3854,-6.3913,-6.3914,-6.4012,-6.3901,-6.398,-6.3983,-6.3974,-6.4207,-6.4249,-6.4419,-6.4128,-6.4132,-6.4135,0,-6.3621,-6.3669,-6.3824,-6.3848,-6.3876,-6.3945,-6.3996,-6.4052,-6.4083,-6.4078,-6.4113,-6.4079,-6.4164,-6.4077,-6.4192,-6.4117,-6.4148,-6.4154,-6.4159,-6.4166,-6.4069,-6.4219,-6.4473,-6.4498,-6.4171,-6.4168,-6.4166,0,-6.3788,-6.3891,-6.3997,-6.4019,-6.405,-6.4099,-6.4114,-6.414,-6.4176,-6.422,-6.4243,-6.4296,-6.4325,-6.4366,-6.4347,-6.4285,-6.4465,-6.4377,-6.4463,-6.4463,-6.4503,-6.4501,-6.4765,-6.4524,-6.4524,-6.4523,-6.4523,0,-6.3995,-6.4091,-6.4072,-6.4137,-6.4243,-6.4216,-6.432,-6.4328,-6.4351,-6.4415,-6.4367,-6.4427,-6.4398,-6.4456,-6.4441,-6.4538,-6.4551,-6.4549,-6.4544,-6.4553,-6.4554,-6.4573,-6.456,-6.453,-6.4529,-6.4527,-6.4526,0,-6.42,-6.4191,-6.4302,-6.4322,-6.4329,-6.4406,-6.4422,-6.4482,-6.4478,-6.4559,-6.4576,-6.457,-6.4635,-6.462,-6.4691,-6.468,-6.4803,-6.4783,-6.4793,-6.4788,-6.4875,-6.4866,-6.516,-6.5196,-6.4933,-6.4935,-6.4937,0,-6.4332,-6.4405,-6.4433,-6.4473,-6.4492,-6.4557,-6.4594,-6.457,-6.461,-6.4649,-6.4704,-6.4765,-6.4812,-6.4919,-6.4919,-6.4972,-6.4953,-6.5052,-6.4961,-6.4967,-6.4953,-6.4949,-6.4956,-6.507,-6.5073,-6.5076,-6.5078,0,-6.4567,-6.4559,-6.4616,-6.4671,-6.4716,-6.4758,-6.4794,-6.4829,-6.4807,-6.4854,-6.4921,-6.4958,-6.503,-6.5091,-6.514,-6.5152,-6.5111,-6.5106,-6.5129,-6.5139,-6.5142,-6.5141,-6.4842,-6.51,-6.5098,-6.5096,-6.5095,-6.5094,-6.4739,-6.4801,-6.4831,-6.4894,-6.4919,-6.4955,-6.5011,-6.5015,-6.5071,-6.5129,-6.511,-6.5186,-6.5212,-6.5274,-6.5293,-6.535,-6.5312,-6.5345,-6.5353,-6.5362,-6.5372,-6.5133,-6.5359,-6.5358,-6.5357,-6.5357,-6.5356,0,-6.4972,-6.4988,-6.5047,-6.51,-6.515,-6.5108,-6.5146,-6.5189,-6.5257,-6.5286,-6.5334,-6.541,-6.5468,-6.5473,-6.5527,-6.5572,-6.5554,-6.5587,-6.5583,-6.5586,-6.5403,-6.5378,-6.56,-6.56,-6.56,-6.56,-6.56,-6.56,-6.5099,-6.5201,-6.5196,-6.5309,-6.5323,-6.5399,-6.5424,-6.5455,-6.5478,-6.5565,-6.5614,-6.5617,-6.5636,-6.569,-6.5741,-6.5741,-6.5762,-6.5802,-6.5795,-6.5624,-6.5599,-6.5576,-6.5552,-6.5807,-6.5808,-6.5973,-6.5974,-6.5976]}]]